Location: Las Callecitas
(9.8750°N, 67.4611°W)
Time: 03:02:07
(UTC+00:00)

Cosmos 1420 Rocket - Pass Details

Date: 14 April 2024
Orbit: 752 x 779 km, 74.0° (Epoch: 19 May)

Event Time Altitude Azimuth Distance (km) Brightness Sun altitude
Rises 09:02:18 0° 347° (NNW) 3,234 7.3 -19.5°
Reaches altitude 10° 09:04:40 10° 347° (NNW) 2,311 6.5 -19.0°
Maximum altitude 09:09:56 88° 259° (W) 779 3.9 -17.7°
Drops below altitude 10° 09:15:13 10° 168° (SSE) 2,323 6.5 -16.4°
Sets 09:17:36 0° 168° (SSE) 3,252 7.2 -15.9°
